Starlink 33813

operational
NORAD ID: 63585 Int'l Des: 2025-076 Owner: SPXS Country: US Constellation: starlink
LEOCIRCULAR

Über Starlink 33813

Beschreibung wird geladen...

Live-Position

3D-Globus wird geladen...

Nächste Überflüge

Höhenverlauf

Altitude vs Time

uPlot chart will show altitude changes over time

Zweizeiliger Elementsatz

1 63585U 25076S 25304.80175353 .00031544 00000-0 11513-2 0 9993
2 63585 42.9993 329.1593 0001691 54.9683 305.1327 15.27568922 32125
Epoch: 31. Okt. 2025 • Age: 25 hours

Aktueller Status

Höhe 491.2 km
Geschwindigkeit 7.62 km/s
Subsatellitenpunkt -27.97°S, 159.76°W
Startdatum 14. Apr. 2025
Alter 0.5 years
Typ internet

Technische Details

Klassifizierung Payload
Masse 575.00 kg
Trockenmasse 530.00 kg
Gesamtmasse 575.00 kg
Länge 0.30 m
Durchmesser 4.10 m
Spannweite 29.00 m
Form Box + pan
Hersteller SPXS
Bus-Typ Starlink V2MO
Phasenstatus In Orbit
Besitzer/Staat SPXS/US

Große Konstellationen

Loading constellations...